| time (UTC) | temp F | wind direction | speed MPH | gust MPH | rain 1hr in | rain 24hr in | rain mn in | humidity % | barometer mb |
| 20260509204910 | 50 | 200 | 3.0 | 6.0 | 0.06 | 0.38 | 0.38 | 97 | 1008.7 |
| 20260509204409 | 51 | 200 | 2.0 | 5.0 | 0.06 | 0.37 | 0.37 | 97 | 1008.7 |
| 20260509203909 | 51 | 200 | 2.0 | 9.0 | 0.06 | 0.37 | 0.37 | 97 | 1008.6 |
| 20260509202910 | 51 | 211 | 9.0 | 15.0 | 0.06 | 0.35 | 0.35 | 97 | 1008.6 |
| 20260509202409 | 51 | 214 | 11.0 | 20.0 | 0.05 | 0.35 | 0.35 | 97 | 1008.5 |
| 20260509200909 | 51 | 47 | 0.0 | 0.0 | 0.02 | 0.32 | 0.32 | 97 | 1008.1 |
| 20260509195910 | 51 | 47 | 2.0 | 3.0 | 0.02 | 0.32 | 0.32 | 97 | 1007.9 |
| 20260509195409 | 51 | 47 | 0.0 | 3.0 | 0.02 | 0.31 | 0.31 | 97 | 1007.8 |
| 20260509194909 | 51 | 47 | 0.0 | 1.0 | 0.02 | 0.31 | 0.31 | 97 | 1007.8 |
| 20260509194409 | 51 | 47 | 0.0 | 3.0 | 0.02 | 0.31 | 0.31 | 97 | 1007.7 |
| 20260509193909 | 51 | 47 | 1.0 | 2.0 | 0.02 | 0.31 | 0.31 | 97 | 1007.6 |
| 20260509192910 | 51 | 47 | 0.0 | 2.0 | 0.00 | 0.30 | 0.30 | 97 | 1007.5 |
| 20260509191909 | 51 | 47 | 0.0 | 0.0 | 0.00 | 0.30 | 0.30 | 97 | 1007.5 |
| 20260509190910 | 52 | 47 | 0.0 | 0.0 | 0.00 | 0.30 | 0.30 | 97 | 1007.3 |
| 20260509185910 | 52 | 47 | 0.0 | 0.0 | 0.00 | 0.30 | 0.30 | 97 | 1007.2 |
| 20260509185409 | 52 | 47 | 0.0 | 1.0 | 0.00 | 0.30 | 0.30 | 97 | 1007.3 |
| 20260509184909 | 52 | 47 | 1.0 | 3.0 | 0.01 | 0.30 | 0.30 | 97 | 1007.1 |
| 20260509184409 | 52 | 47 | 1.0 | 3.0 | 0.01 | 0.30 | 0.30 | 97 | 1007.1 |
| 20260509183909 | 52 | 47 | 0.0 | 3.0 | 0.02 | 0.30 | 0.30 | 97 | 1007.0 |
| 20260509182910 | 52 | 47 | 0.0 | 3.0 | 0.03 | 0.30 | 0.30 | 97 | 1007.0 |
| 20260509182409 | 51 | 47 | 3.0 | 5.0 | 0.03 | 0.30 | 0.30 | 97 | 1007.0 |
| 20260509181909 | 51 | 47 | 2.0 | 3.0 | 0.05 | 0.30 | 0.30 | 97 | 1007.0 |
| 20260509180909 | 51 | 47 | 2.0 | 3.0 | 0.08 | 0.30 | 0.30 | 97 | 1006.8 |
| 20260509180409 | 51 | 47 | 1.0 | 3.0 | 0.09 | 0.30 | 0.30 | 97 | 1006.8 |
| 20260509175910 | 51 | 47 | 0.0 | 3.0 | 0.09 | 0.30 | 0.30 | 97 | 1006.7 |
| 20260509175408 | 51 | 47 | 3.0 | 6.0 | 0.09 | 0.30 | 0.30 | 97 | 1006.6 |
| 20260509174909 | 51 | 47 | 1.0 | 3.0 | 0.09 | 0.29 | 0.29 | 96 | 1006.6 |
| 20260509174409 | 51 | 47 | 0.0 | 2.0 | 0.09 | 0.29 | 0.29 | 96 | 1006.6 |
| 20260509173910 | 51 | 47 | 3.0 | 6.0 | 0.08 | 0.28 | 0.28 | 96 | 1006.5 |
| 20260509173410 | 51 | 47 | 6.0 | 7.0 | 0.06 | 0.27 | 0.27 | 96 | 1006.5 |
| 20260509172910 | 51 | 48 | 5.0 | 8.0 | 0.06 | 0.27 | 0.27 | 96 | 1006.3 |
| 20260509172409 | 51 | 48 | 6.0 | 8.0 | 0.06 | 0.27 | 0.27 | 96 | 1006.1 |
| 20260509171909 | 51 | 129 | 1.0 | 3.0 | 0.06 | 0.25 | 0.25 | 95 | 1006.3 |
| 20260509171409 | 51 | 129 | 0.0 | 2.0 | 0.04 | 0.24 | 0.24 | 96 | 1006.4 |
| 20260509170410 | 51 | 68 | 0.0 | 3.0 | 0.02 | 0.20 | 0.20 | 95 | 1006.1 |
| 20260509165910 | 51 | 38 | 2.0 | 5.0 | 0.02 | 0.20 | 0.20 | 95 | 1006.1 |
| 20260509165409 | 51 | 38 | 1.0 | 5.0 | 0.03 | 0.20 | 0.20 | 95 | 1006.1 |
| 20260509164909 | 51 | 36 | 2.0 | 6.0 | 0.04 | 0.20 | 0.20 | 95 | 1006.1 |
| 20260509164409 | 51 | 25 | 2.0 | 5.0 | 0.04 | 0.20 | 0.20 | 95 | 1006.1 |
| 20260509163409 | 51 | 25 | 1.0 | 3.0 | 0.05 | 0.20 | 0.20 | 94 | 1006.0 |
| 20260509162910 | 51 | 25 | 2.0 | 5.0 | 0.06 | 0.20 | 0.20 | 93 | 1006.1 |
| 20260509162409 | 51 | 238 | 2.0 | 5.0 | 0.08 | 0.20 | 0.20 | 91 | 1006.2 |
| 20260509161908 | 52 | 236 | 1.0 | 3.0 | 0.09 | 0.20 | 0.20 | 88 | 1006.2 |
| 20260509161409 | 52 | 236 | 0.0 | 1.0 | 0.10 | 0.20 | 0.20 | 88 | 1006.3 |
| 20260509160909 | 52 | 236 | 0.0 | 0.0 | 0.10 | 0.20 | 0.20 | 88 | 1006.2 |
| 20260509160410 | 52 | 236 | 1.0 | 3.0 | 0.09 | 0.19 | 0.19 | 88 | 1006.1 |
| 20260509155910 | 52 | 236 | 1.0 | 3.0 | 0.09 | 0.18 | 0.18 | 87 | 1006.1 |
| 20260509155409 | 53 | 236 | 5.0 | 8.0 | 0.08 | 0.17 | 0.17 | 86 | 1006.0 |
| 20260509154409 | 53 | 233 | 3.0 | 8.0 | 0.07 | 0.17 | 0.17 | 86 | 1005.8 |
| 20260509153909 | 54 | 215 | 7.0 | 12.0 | 0.06 | 0.16 | 0.16 | 85 | 1005.7 |
| 20260509153409 | 54 | 213 | 9.0 | 15.0 | 0.06 | 0.16 | 0.16 | 84 | 1005.5 |
| 20260509152910 | 55 | 211 | 9.0 | 18.0 | 0.05 | 0.14 | 0.14 | 82 | 1005.4 |
| 20260509151909 | 59 | 195 | 15.0 | 25.0 | 0.01 | 0.10 | 0.10 | 82 | 1005.3 |
| 20260509151409 | 59 | 219 | 11.0 | 15.0 | 0.00 | 0.09 | 0.09 | 84 | 1005.1 |
| 20260509150909 | 59 | 83 | 1.0 | 6.0 | 0.00 | 0.09 | 0.09 | 84 | 1004.6 |
| 20260509150409 | 59 | 83 | 0.0 | 2.0 | 0.00 | 0.09 | 0.09 | 84 | 1004.4 |
| 20260509144910 | 59 | 96 | 2.0 | 6.0 | 0.00 | 0.09 | 0.09 | 83 | 1004.4 |
| 20260509144410 | 59 | 78 | 0.0 | 2.0 | 0.00 | 0.09 | 0.09 | 85 | 1004.5 |
| 20260509143909 | 59 | 77 | 2.0 | 6.0 | 0.00 | 0.09 | 0.09 | 81 | 1004.4 |
| 20260509143408 | 60 | 128 | 1.0 | 3.0 | 0.00 | 0.09 | 0.09 | 78 | 1004.4 |
| 20260509142410 | 61 | 84 | 1.0 | 5.0 | 0.00 | 0.09 | 0.09 | 77 | 1004.4 |
| 20260509141909 | 61 | 84 | 1.0 | 6.0 | 0.00 | 0.09 | 0.09 | 78 | 1004.4 |
| 20260509141409 | 62 | 108 | 2.0 | 7.0 | 0.00 | 0.09 | 0.09 | 77 | 1004.4 |
| 20260509140909 | 62 | 133 | 0.0 | 12.0 | 0.00 | 0.09 | 0.09 | 76 | 1004.4 |
| 20260509134909 | 60 | 157 | 2.0 | 7.0 | 0.00 | 0.09 | 0.09 | 78 | 1004.5 |
| 20260509134409 | 60 | 97 | 1.0 | 3.0 | 0.00 | 0.09 | 0.09 | 78 | 1004.5 |
| 20260509133909 | 60 | 90 | 2.0 | 6.0 | 0.00 | 0.09 | 0.09 | 77 | 1004.5 |
| 20260509133409 | 60 | 96 | 1.0 | 6.0 | 0.00 | 0.09 | 0.09 | 78 | 1004.5 |
| 20260509132910 | 60 | 159 | 1.0 | 8.0 | 0.00 | 0.09 | 0.09 | 79 | 1004.5 |
| 20260509131909 | 59 | 155 | 1.0 | 7.0 | 0.00 | 0.09 | 0.09 | 81 | 1004.6 |
| 20260509131408 | 59 | 156 | 1.0 | 12.0 | 0.00 | 0.09 | 0.09 | 81 | 1004.5 |
| 20260509130909 | 58 | 160 | 2.0 | 12.0 | 0.00 | 0.09 | 0.09 | 80 | 1004.6 |
| 20260509130408 | 58 | 158 | 5.0 | 13.0 | 0.00 | 0.09 | 0.09 | 81 | 1004.6 |
| 20260509125910 | 58 | 163 | 8.0 | 13.0 | 0.00 | 0.09 | 0.09 | 81 | 1004.7 |
| 20260509125409 | 58 | 133 | 2.0 | 8.0 | 0.00 | 0.09 | 0.09 | 81 | 1004.7 |
| 20260509124409 | 58 | 62 | 5.0 | 12.0 | 0.00 | 0.10 | 0.09 | 81 | 1004.8 |
| 20260509123409 | 58 | 94 | 3.0 | 10.0 | 0.01 | 0.11 | 0.09 | 81 | 1004.9 |
| 20260509122910 | 58 | 119 | 4.0 | 12.0 | 0.01 | 0.11 | 0.09 | 82 | 1004.9 |
| 20260509122409 | 58 | 60 | 9.0 | 15.0 | 0.01 | 0.11 | 0.09 | 84 | 1004.7 |
| 20260509121909 | 57 | 70 | 2.0 | 8.0 | 0.02 | 0.11 | 0.09 | 88 | 1004.8 |
| 20260509121409 | 57 | 72 | 2.0 | 10.0 | 0.02 | 0.11 | 0.09 | 86 | 1004.9 |
| 20260509120909 | 56 | 45 | 2.0 | 10.0 | 0.02 | 0.11 | 0.09 | 88 | 1005.0 |
| 20260509120409 | 56 | 41 | 1.0 | 5.0 | 0.02 | 0.11 | 0.09 | 89 | 1005.0 |
| 20260509115409 | 55 | 41 | 3.0 | 6.0 | 0.03 | 0.11 | 0.09 | 90 | 1005.0 |
| 20260509114909 | 55 | 41 | 6.0 | 10.0 | 0.03 | 0.11 | 0.09 | 90 | 1005.0 |
| 20260509114409 | 55 | 42 | 3.0 | 6.0 | 0.03 | 0.11 | 0.09 | 90 | 1005.2 |
| 20260509113909 | 55 | 41 | 5.0 | 9.0 | 0.03 | 0.11 | 0.09 | 90 | 1005.2 |
| 20260509112910 | 55 | 27 | 6.0 | 10.0 | 0.03 | 0.10 | 0.09 | 89 | 1005.3 |
| 20260509112409 | 56 | 31 | 7.0 | 12.0 | 0.03 | 0.10 | 0.09 | 89 | 1005.3 |
| 20260509111410 | 56 | 71 | 2.0 | 6.0 | 0.02 | 0.09 | 0.08 | 87 | 1005.4 |
| 20260509110909 | 56 | 77 | 2.0 | 8.0 | 0.02 | 0.09 | 0.08 | 86 | 1005.5 |
| 20260509105911 | 56 | 339 | 3.0 | 8.0 | 0.02 | 0.09 | 0.07 | 87 | 1005.6 |
| 20260509104909 | 56 | 36 | 3.0 | 9.0 | 0.01 | 0.08 | 0.06 | 86 | 1005.4 |
| 20260509104410 | 57 | 86 | 3.0 | 6.0 | 0.01 | 0.08 | 0.06 | 85 | 1005.4 |
| 20260509103409 | 57 | 86 | 1.0 | 5.0 | 0.01 | 0.08 | 0.06 | 83 | 1005.4 |
| 20260509102911 | 57 | 86 | 2.0 | 5.0 | 0.00 | 0.07 | 0.06 | 82 | 1005.4 |
| 20260509102409 | 58 | 86 | 1.0 | 6.0 | 0.00 | 0.07 | 0.06 | 81 | 1005.4 |
| 20260509101909 | 58 | 85 | 0.0 | 3.0 | 0.00 | 0.07 | 0.06 | 79 | 1005.5 |
| 20260509100909 | 59 | 141 | 2.0 | 5.0 | 0.00 | 0.07 | 0.06 | 77 | 1005.4 |
| 20260509095910 | 59 | 58 | 1.0 | 7.0 | 0.00 | 0.07 | 0.06 | 76 | 1005.3 |
| 20260509095409 | 60 | 53 | 3.0 | 6.0 | 0.00 | 0.07 | 0.06 | 74 | 1005.3 |
| 20260509094910 | 60 | 54 | 1.0 | 9.0 | 0.00 | 0.07 | 0.06 | 74 | 1005.3 |
| 20260509094409 | 59 | 99 | 3.0 | 10.0 | 0.00 | 0.07 | 0.06 | 77 | 1005.4 |
| 20260509093909 | 59 | 147 | 3.0 | 8.0 | 0.00 | 0.07 | 0.06 | 76 | 1005.4 |
| 20260509092911 | 59 | 93 | 3.0 | 9.0 | 0.00 | 0.07 | 0.06 | 75 | 1005.4 |
| 20260509092409 | 60 | 87 | 2.0 | 9.0 | 0.00 | 0.07 | 0.06 | 75 | 1005.4 |
| 20260509091910 | 60 | 79 | 2.0 | 9.0 | 0.00 | 0.07 | 0.06 | 76 | 1005.4 |
| 20260509091409 | 59 | 99 | 5.0 | 12.0 | 0.00 | 0.07 | 0.06 | 77 | 1005.3 |
| 20260509090910 | 59 | 119 | 2.0 | 9.0 | 0.00 | 0.07 | 0.06 | 78 | 1005.3 |
| 20260509090409 | 58 | 97 | 3.0 | 7.0 | 0.00 | 0.07 | 0.06 | 78 | 1005.3 |
| 20260509085910 | 58 | 99 | 5.0 | 13.0 | 0.00 | 0.07 | 0.06 | 78 | 1005.3 |
| 20260509085409 | 58 | 105 | 3.0 | 9.0 | 0.00 | 0.07 | 0.06 | 77 | 1005.4 |
| 20260509084909 | 58 | 88 | 2.0 | 7.0 | 0.00 | 0.07 | 0.06 | 78 | 1005.4 |
| 20260509084409 | 58 | 150 | 3.0 | 9.0 | 0.00 | 0.07 | 0.06 | 78 | 1005.5 |
| 20260509083910 | 58 | 83 | 2.0 | 13.0 | 0.00 | 0.07 | 0.06 | 78 | 1005.6 |
| 20260509083409 | 58 | 86 | 2.0 | 8.0 | 0.00 | 0.07 | 0.06 | 78 | 1005.4 |
| 20260509082910 | 58 | 148 | 3.0 | 7.0 | 0.00 | 0.07 | 0.06 | 79 | 1005.4 |
| 20260509082410 | 58 | 150 | 2.0 | 7.0 | 0.00 | 0.07 | 0.06 | 79 | 1005.3 |
| 20260509081909 | 58 | 114 | 3.0 | 12.0 | 0.00 | 0.07 | 0.06 | 81 | 1005.3 |
| 20260509080909 | 58 | 162 | 3.0 | 12.0 | 0.00 | 0.07 | 0.06 | 80 | 1005.4 |
| 20260509075910 | 58 | 99 | 1.0 | 6.0 | 0.00 | 0.07 | 0.06 | 81 | 1005.5 |
| 20260509075409 | 58 | 64 | 1.0 | 8.0 | 0.00 | 0.07 | 0.06 | 80 | 1005.5 |
| 20260509073909 | 59 | 78 | 1.0 | 8.0 | 0.00 | 0.07 | 0.06 | 80 | 1005.4 |
| 20260509073409 | 59 | 74 | 2.0 | 7.0 | 0.00 | 0.07 | 0.06 | 82 | 1005.4 |
| 20260509072911 | 58 | 80 | 2.0 | 7.0 | 0.00 | 0.07 | 0.06 | 83 | 1005.5 |
| 20260509072409 | 58 | 62 | 1.0 | 6.0 | 0.00 | 0.07 | 0.06 | 85 | 1005.5 |
| 20260509071910 | 57 | 67 | 4.0 | 6.0 | 0.00 | 0.07 | 0.06 | 89 | 1005.5 |
| 20260509071410 | 56 | 68 | 5.0 | 6.0 | 0.00 | 0.07 | 0.06 | 90 | 1005.5 |
| 20260509070910 | 55 | 70 | 3.0 | 6.0 | 0.00 | 0.07 | 0.06 | 93 | 1005.6 |
| 20260509070409 | 54 | 70 | 2.0 | 7.0 | 0.00 | 0.07 | 0.06 | 93 | 1005.6 |
| 20260509065910 | 53 | 73 | 1.0 | 5.0 | 0.00 | 0.08 | 0.06 | 93 | 1005.7 |
| 20260509065408 | 53 | 78 | 2.0 | 5.0 | 0.00 | 0.08 | 0.06 | 93 | 1005.5 |
| 20260509064410 | 52 | 82 | 0.0 | 5.0 | 0.00 | 0.10 | 0.06 | 94 | 1005.5 |
| 20260509063909 | 52 | 80 | 2.0 | 7.0 | 0.00 | 0.11 | 0.06 | 94 | 1005.6 |
| 20260509063409 | 51 | 91 | 3.0 | 9.0 | 0.00 | 0.12 | 0.06 | 94 | 1005.6 |
| 20260509062409 | 51 | 49 | 2.0 | 3.0 | 0.00 | 0.12 | 0.06 | 94 | 1005.7 |
| 20260509061409 | 51 | 80 | 3.0 | 6.0 | 0.00 | 0.12 | 0.06 | 93 | 1005.7 |
| 20260509060909 | 51 | 80 | 3.0 | 5.0 | 0.00 | 0.12 | 0.06 | 93 | 1005.7 |
| 20260509060409 | 51 | 80 | 1.0 | 5.0 | 0.00 | 0.12 | 0.06 | 93 | 1005.8 |
| 20260509055910 | 51 | 80 | 1.0 | 5.0 | 0.00 | 0.12 | 0.06 | 93 | 1005.7 |
| 20260509055409 | 51 | 80 | 1.0 | 5.0 | 0.00 | 0.12 | 0.06 | 93 | 1005.8 |
| 20260509053909 | 51 | 92 | 0.0 | 3.0 | 0.00 | 0.12 | 0.06 | 93 | 1005.4 |
| 20260509053409 | 51 | 92 | 1.0 | 5.0 | 0.00 | 0.12 | 0.06 | 92 | 1005.4 |
| 20260509052910 | 52 | 119 | 1.0 | 3.0 | 0.00 | 0.12 | 0.06 | 92 | 1005.4 |
| 20260509052409 | 52 | 119 | 1.0 | 3.0 | 0.00 | 0.12 | 0.06 | 92 | 1005.5 |
| 20260509051909 | 52 | 119 | 2.0 | 5.0 | 0.00 | 0.12 | 0.06 | 92 | 1005.5 |
| 20260509050909 | 52 | 119 | 3.0 | 5.0 | 0.00 | 0.12 | 0.06 | 92 | 1005.5 |
| 20260509045409 | 52 | 119 | 2.0 | 3.0 | 0.00 | 0.12 | 0.06 | 92 | 1005.7 |
| 20260509044409 | 53 | 119 | 1.0 | 3.0 | 0.00 | 0.12 | 0.06 | 92 | 1005.8 |
| 20260509043909 | 53 | 119 | 0.0 | 1.0 | 0.00 | 0.12 | 0.06 | 91 | 1005.7 |
| 20260509043409 | 53 | 119 | 0.0 | 1.0 | 0.00 | 0.12 | 0.06 | 91 | 1005.8 |
| 20260509042911 | 53 | 119 | 0.0 | 1.0 | 0.00 | 0.12 | 0.06 | 92 | 1005.8 |
| 20260509042409 | 53 | 119 | 0.0 | 3.0 | 0.00 | 0.12 | 0.06 | 91 | 1005.8 |
| 20260509041909 | 53 | 118 | 0.0 | 3.0 | 0.00 | 0.12 | 0.06 | 91 | 1005.8 |
| 20260509041409 | 53 | 126 | 1.0 | 3.0 | 0.00 | 0.12 | 0.06 | 91 | 1005.9 |
| 20260509040909 | 53 | 140 | 1.0 | 5.0 | 0.00 | 0.12 | 0.06 | 91 | 1005.8 |
| 20260509040409 | 53 | 120 | 1.0 | 6.0 | 0.00 | 0.12 | 0.06 | 91 | 1005.8 |
| 20260509035910 | 53 | 152 | 1.0 | 7.0 | 0.00 | 0.12 | 0.06 | 92 | 1005.8 |
| 20260509034908 | 53 | 77 | 1.0 | 3.0 | 0.00 | 0.12 | 0.06 | 93 | 1005.7 |
| 20260509034409 | 53 | 81 | 1.0 | 3.0 | 0.00 | 0.12 | 0.06 | 93 | 1005.8 |
| 20260509033910 | 53 | 81 | 0.0 | 3.0 | 0.00 | 0.12 | 0.06 | 93 | 1005.8 |
| 20260509033409 | 53 | 81 | 1.0 | 2.0 | 0.00 | 0.12 | 0.06 | 93 | 1005.8 |
| 20260509032910 | 53 | 81 | 1.0 | 3.0 | 0.00 | 0.12 | 0.06 | 93 | 1005.9 |
| 20260509032409 | 52 | 81 | 1.0 | 3.0 | 0.00 | 0.12 | 0.06 | 93 | 1006.0 |
| 20260509031909 | 52 | 81 | 0.0 | 3.0 | 0.00 | 0.12 | 0.06 | 93 | 1006.0 |
| 20260509031409 | 52 | 80 | 1.0 | 3.0 | 0.00 | 0.12 | 0.06 | 94 | 1006.0 |
| 20260509030909 | 52 | 94 | 2.0 | 6.0 | 0.01 | 0.12 | 0.06 | 94 | 1006.0 |
| 20260509030409 | 52 | 131 | 2.0 | 7.0 | 0.01 | 0.12 | 0.06 | 94 | 1006.1 |
| 20260509025910 | 52 | 108 | 2.0 | 8.0 | 0.01 | 0.12 | 0.06 | 94 | 1006.0 |
| 20260509025409 | 52 | 57 | 2.0 | 6.0 | 0.01 | 0.12 | 0.06 | 94 | 1006.1 |
| 20260509024909 | 52 | 76 | 0.0 | 5.0 | 0.01 | 0.12 | 0.06 | 93 | 1006.1 |
| 20260509023910 | 52 | 76 | 1.0 | 3.0 | 0.01 | 0.12 | 0.06 | 93 | 1006.0 |
| 20260509023409 | 52 | 76 | 1.0 | 3.0 | 0.02 | 0.12 | 0.06 | 93 | 1005.9 |
| 20260509022408 | 52 | 63 | 1.0 | 5.0 | 0.03 | 0.12 | 0.06 | 92 | 1006.1 |
| 20260509021909 | 52 | 63 | 1.0 | 5.0 | 0.04 | 0.12 | 0.06 | 92 | 1006.1 |
| 20260509021409 | 53 | 61 | 1.0 | 6.0 | 0.05 | 0.12 | 0.06 | 91 | 1006.1 |
| 20260509020909 | 53 | 61 | 0.0 | 3.0 | 0.05 | 0.11 | 0.05 | 91 | 1006.2 |
| 20260509020409 | 53 | 61 | 0.0 | 2.0 | 0.05 | 0.11 | 0.05 | 91 | 1006.1 |
| 20260509015410 | 54 | 104 | 4.0 | 6.0 | 0.05 | 0.11 | 0.05 | 89 | 1006.4 |
| 20260509014908 | 54 | 141 | 2.0 | 3.0 | 0.05 | 0.11 | 0.05 | 89 | 1006.7 |
| 20260509014409 | 54 | 149 | 1.0 | 3.0 | 0.05 | 0.11 | 0.05 | 89 | 1007.0 |
| 20260509013909 | 54 | 149 | 0.0 | 2.0 | 0.05 | 0.11 | 0.05 | 88 | 1006.9 |
| 20260509012910 | 54 | 160 | 1.0 | 6.0 | 0.04 | 0.10 | 0.04 | 87 | 1006.9 |
| 20260509012409 | 54 | 158 | 3.0 | 7.0 | 0.02 | 0.09 | 0.02 | 87 | 1007.0 |
| 20260509011909 | 54 | 150 | 1.0 | 7.0 | 0.02 | 0.08 | 0.02 | 86 | 1007.0 |
| 20260509011409 | 54 | 158 | 3.0 | 10.0 | 0.01 | 0.07 | 0.01 | 85 | 1006.9 |
| 20260509010909 | 54 | 174 | 5.0 | 10.0 | 0.00 | 0.06 | 0.00 | 84 | 1006.9 |
| 20260509005910 | 54 | 72 | 3.0 | 3.0 | 0.00 | 0.06 | 0.00 | 82 | 1006.7 |
| 20260509005409 | 54 | 72 | 1.0 | 3.0 | 0.00 | 0.06 | 0.00 | 82 | 1006.7 |
| 20260509004409 | 54 | 71 | 1.0 | 5.0 | 0.00 | 0.06 | 0.00 | 83 | 1006.8 |
| 20260509003909 | 54 | 71 | 0.0 | 5.0 | 0.00 | 0.06 | 0.00 | 84 | 1006.9 |
| 20260509003409 | 54 | 71 | 3.0 | 5.0 | 0.00 | 0.06 | 0.00 | 83 | 1006.9 |
| 20260509002910 | 53 | 73 | 1.0 | 3.0 | 0.00 | 0.06 | 0.00 | 83 | 1006.9 |
| 20260509002409 | 53 | 74 | 1.0 | 3.0 | 0.00 | 0.06 | 0.00 | 84 | 1007.0 |
| 20260509001909 | 53 | 74 | 0.0 | 1.0 | 0.00 | 0.06 | 0.00 | 84 | 1006.9 |
| 20260509001409 | 53 | 74 | 1.0 | 7.0 | 0.00 | 0.06 | 0.00 | 84 | 1007.0 |
| 20260509000410 | 53 | 36 | 3.0 | 9.0 | 0.00 | 0.06 | 0.00 | 85 | 1007.1 |
| 20260508235910 | 53 | 35 | 5.0 | 8.0 | 0.00 | 0.06 | 0.00 | 87 | 1007.1 |
| 20260508235409 | 52 | 161 | 2.0 | 3.0 | 0.00 | 0.06 | 0.00 | 87 | 1007.3 |
| 20260508234909 | 52 | 164 | 1.0 | 3.0 | 0.00 | 0.06 | 0.00 | 87 | 1007.4 |
| 20260508234409 | 52 | 165 | 1.0 | 6.0 | 0.00 | 0.06 | 0.00 | 88 | 1007.4 |
| 20260508233910 | 52 | 165 | 4.0 | 7.0 | 0.00 | 0.06 | 0.00 | 87 | 1007.4 |
| 20260508233409 | 52 | 136 | 2.0 | 6.0 | 0.00 | 0.06 | 0.00 | 88 | 1007.3 |
| 20260508232409 | 52 | 34 | 2.0 | 5.0 | 0.00 | 0.06 | 0.00 | 89 | 1007.6 |
| 20260508231909 | 52 | 40 | 6.0 | 12.0 | 0.00 | 0.06 | 0.00 | 89 | 1007.6 |
| 20260508231409 | 52 | 33 | 3.0 | 8.0 | 0.00 | 0.06 | 0.00 | 89 | 1007.7 |
| 20260508230909 | 52 | 34 | 0.0 | 6.0 | 0.00 | 0.06 | 0.00 | 89 | 1007.7 |
| 20260508230409 | 52 | 34 | 1.0 | 12.0 | 0.00 | 0.06 | 0.00 | 90 | 1007.8 |
| 20260508225910 | 52 | 32 | 7.0 | 13.0 | 0.00 | 0.06 | 0.00 | 90 | 1007.8 |
| 20260508225409 | 51 | 32 | 8.0 | 12.0 | 0.00 | 0.06 | 0.00 | 91 | 1008.0 |
| 20260508224909 | 51 | 33 | 4.0 | 9.0 | 0.00 | 0.06 | 0.00 | 90 | 1008.0 |
| 20260508224408 | 51 | 33 | 3.0 | 5.0 | 0.00 | 0.06 | 0.00 | 91 | 1008.1 |
| 20260508223909 | 51 | 33 | 4.0 | 7.0 | 0.00 | 0.06 | 0.00 | 90 | 1008.1 |
| 20260508222910 | 51 | 33 | 7.0 | 10.0 | 0.00 | 0.06 | 0.00 | 91 | 1008.2 |
| 20260508222409 | 51 | 33 | 6.0 | 10.0 | 0.00 | 0.06 | 0.00 | 90 | 1008.3 |
| 20260508221909 | 51 | 32 | 5.0 | 10.0 | 0.00 | 0.06 | 0.00 | 90 | 1008.4 |
| 20260508221409 | 51 | 33 | 6.0 | 12.0 | 0.00 | 0.06 | 0.00 | 90 | 1008.5 |
| 20260508220909 | 51 | 39 | 6.0 | 12.0 | 0.00 | 0.06 | 0.00 | 90 | 1008.6 |
| 20260508220409 | 51 | 45 | 6.0 | 10.0 | 0.00 | 0.06 | 0.00 | 90 | 1008.6 |
| 20260508214909 | 51 | 50 | 5.0 | 8.0 | 0.00 | 0.06 | 0.06 | 90 | 1008.8 |
| 20260508214409 | 51 | 50 | 3.0 | 7.0 | 0.00 | 0.06 | 0.06 | 89 | 1008.8 |
| 20260508213409 | 51 | 38 | 1.0 | 2.0 | 0.00 | 0.06 | 0.06 | 88 | 1008.8 |
| 20260508212910 | 51 | 38 | 4.0 | 7.0 | 0.00 | 0.06 | 0.06 | 88 | 1008.9 |
| 20260508212409 | 51 | 38 | 5.0 | 9.0 | 0.00 | 0.06 | 0.06 | 88 | 1008.9 |
| 20260508211909 | 51 | 42 | 4.0 | 6.0 | 0.00 | 0.06 | 0.06 | 87 | 1008.8 |
| 20260508211409 | 52 | 42 | 1.0 | 5.0 | 0.00 | 0.06 | 0.06 | 87 | 1008.9 |
| 20260508210909 | 52 | 42 | 5.0 | 7.0 | 0.00 | 0.06 | 0.06 | 87 | 1008.9 |
| 20260508205910 | 52 | 41 | 0.0 | 1.0 | 0.00 | 0.06 | 0.06 | 87 | 1008.9 |
| 20260508205409 | 52 | 40 | 1.0 | 3.0 | 0.00 | 0.06 | 0.06 | 86 | 1008.9 |